This is the latest recevied weather packets stored in our database for station/object DO0SOB-11. If no packets are shown the sender has not sent any weather packets the latest 10 day(s).
| Time | Temp. | Humidity | Pressure | Rain* | Wind** | Luminosity | Snow |
|---|---|---|---|---|---|---|---|
| 1777136330 | 14.44° C | 67% | 979.6 hPa | - | - | - | - |
| 1777135430 | 15° C | 59% | 979.6 hPa | - | - | - | - |
| 1777134530 | 15° C | 47% | 979.6 hPa | - | - | - | - |
| 1777133630 | 15° C | 45% | 979.6 hPa | - | - | - | - |
| 1777132730 | 15° C | 58% | 979.7 hPa | - | - | - | - |
| 1777131830 | 15° C | 60% | 979.6 hPa | - | - | - | - |
| 1777130930 | 15° C | 73% | 979.6 hPa | - | - | - | - |
| 1777130030 | 14.44° C | 76% | 979.6 hPa | - | - | - | - |
| 1777129130 | 15.56° C | 86% | 979.6 hPa | - | - | - | - |
| 1777128230 | 14.44° C | 84% | 979.6 hPa | - | - | - | - |
| 1777127329 | 14.44° C | 86% | 979.6 hPa | - | - | - | - |
| 1777126429 | 14.44° C | 87% | 979.8 hPa | - | - | - | - |
| 1777125529 | 15.56° C | 87% | 979.8 hPa | - | - | - | - |
| 1777124629 | 13.89° C | 94% | 980.1 hPa | - | - | - | - |
| 1777123729 | 15° C | 100% | 980.1 hPa | - | - | - | - |
| 1777122829 | 15° C | 100% | 980.2 hPa | - | - | - | - |
| 1777121929 | 14.44° C | 100% | 980.3 hPa | - | - | - | - |
| 1777121029 | 15° C | 100% | 980.3 hPa | - | - | - | - |
| 1777120129 | 15° C | 100% | 980.2 hPa | - | - | - | - |
| 1777119229 | 12.78° C | 100% | 980.3 hPa | - | - | - | - |
| 1777118329 | 15° C | 100% | 980.3 hPa | - | - | - | - |
| 1777117429 | 13.33° C | 100% | 980.3 hPa | - | - | - | - |
| 1777116529 | 12.22° C | 100% | 980.5 hPa | - | - | - | - |
| 1777115628 | 11.67° C | 100% | 980.5 hPa | - | - | - | - |
| 1777114729 | 11.67° C | 100% | 980.5 hPa | - | - | - | - |
* Rain since midnight (hover to see other rain measurements)
** Current wind speed in m/s (hover to see current wind gust speed)